Location: Newark
(13.5236°S, 71.9791°W)
Time: 12:33:25
(UTC+00:00)

OTV 5 (USA 277) - Pass Details

Date: 23 July 2019
Orbit: 305 x 329 km, 54.5° (Epoch: 11 August)

Event Time Altitude Azimuth Distance (km) Brightness Sun altitude
Rises 23:37:14 0° 316° (NW) 2,076 ? -14.4°
Reaches altitude 10° 23:39:15 10° 309° (NW) 1,248 ? -14.9°
Maximum altitude 23:41:54 43° 236° (SW) 475 ? -15.5°
Enters shadow 23:43:18 23° 174° (S) 768 ? -15.9°
